This is the latest recevied weather packets stored in our database for station/object K5IDL. If no packets are shown the sender has not sent any weather packets the latest 10 day(s).
| Time | Temp. | Humidity | Pressure | Rain* | Wind** | Luminosity | Snow |
|---|---|---|---|---|---|---|---|
| 1777676139 | 18.33° C | 58% | 1016.3 hPa | 0 mm | - | 50 W/m² | - |
| 1777675835 | 18.33° C | 57% | 1016.2 hPa | 0 mm | - | 53 W/m² | - |
| 1777675533 | 18.33° C | 57% | 1016.3 hPa | 0 mm | - | 52 W/m² | - |
| 1777675229 | 18.33° C | 57% | 1016.2 hPa | 0 mm | - | 60 W/m² | - |
| 1777674926 | 18.33° C | 57% | 1016.1 hPa | 0 mm | - | 65 W/m² | - |
| 1777674622 | 18.33° C | 57% | 1016.3 hPa | 0 mm | - | 62 W/m² | - |
| 1777674321 | 18.33° C | 57% | 1016.4 hPa | 0 mm | - | 66 W/m² | - |
| 1777674016 | 18.33° C | 57% | 1016.1 hPa | 0 mm | - | 72 W/m² | - |
| 1777673712 | 18.33° C | 56% | 1016.2 hPa | 0 mm | - | 64 W/m² | - |
| 1777673410 | 18.33° C | 56% | 1016.1 hPa | 0 mm | - | 74 W/m² | - |
| 1777673107 | 18.89° C | 56% | 1016.2 hPa | 0 mm | - | 82 W/m² | - |
| 1777672804 | 18.33° C | 57% | 1016.2 hPa | 0 mm | - | 79 W/m² | - |
| 1777672500 | 18.33° C | 57% | 1016.2 hPa | 0 mm | - | 80 W/m² | - |
| 1777672195 | 18.33° C | 57% | 1016 hPa | 0 mm | - | 76 W/m² | - |
| 1777671891 | 18.33° C | 57% | 1016.4 hPa | 0 mm | - | 82 W/m² | - |
| 1777671587 | 18.33° C | 57% | 1016.3 hPa | 0 mm | - | 92 W/m² | - |
| 1777671284 | 18.33° C | 56% | 1016.3 hPa | 0 mm | - | 104 W/m² | - |
| 1777670979 | 18.89° C | 57% | 1016.2 hPa | 0 mm | - | 104 W/m² | - |
| 1777670676 | 18.33° C | 56% | 1016.1 hPa | 0 mm | - | 110 W/m² | - |
| 1777670373 | 18.89° C | 56% | 1016.2 hPa | 0 mm | - | 116 W/m² | - |
| 1777670071 | 18.33° C | 55% | 1016.4 hPa | 0 mm | - | 135 W/m² | - |
| 1777669768 | 18.33° C | 57% | 1016.5 hPa | 0 mm | - | 147 W/m² | - |
| 1777669464 | 18.33° C | 56% | 1016.6 hPa | 0 mm | - | 147 W/m² | - |
| 1777669161 | 18.33° C | 56% | 1016.6 hPa | 0 mm | - | 144 W/m² | - |
| 1777668858 | 18.89° C | 54% | 1016.8 hPa | 0 mm | - | 159 W/m² | - |
* Rain latest hour (hover to see other rain measurements)
** Current wind speed in m/s (hover to see current wind gust speed)